XBHVJ MMHO-MMMD

Flight info

Callsign XBHVJ
Flight time N/A
Altitude 25000
Route IGTAN UJ38 CUU UJ2 TAGIB/N0275F270 UJ2 CAMUI UJ13 REX UJ2 IRBID UJ10 MAM UT22 XUBSU
Aircraft PC12/L-SDFGRWY/S

Departure

Time 2026-04-20 23:35
Airport General Ignacio L. Pesqueira International Airport (MMHO)

Arrival

Time N/A
Airport Manuel Crescencio Rejón International Airport (MMMD)
Time Latitude Longitude Altitude Speed Heading
2026-04-20 22:57 29.09307 -111.04798 640 ft 0 kts 275°
2026-04-20 23:05 29.09307 -111.04797 640 ft 0 kts 275°
2026-04-20 23:25 29.09344 -111.04813 640 ft 13 kts 356°
2026-04-20 23:25 29.09373 -111.04708 641 ft 19 kts 107°
2026-04-20 23:25 29.09412 -111.04589 641 ft 20 kts 51°
2026-04-20 23:25 29.09510 -111.04488 642 ft 17 kts 79°
2026-04-20 23:26 29.09557 -111.04371 643 ft 16 kts 57°
2026-04-20 23:26 29.09622 -111.04264 643 ft 17 kts 56°
2026-04-20 23:26 29.09695 -111.04164 644 ft 16 kts 20°
2026-04-20 23:26 29.09792 -111.04199 644 ft 9 kts 335°
2026-04-20 23:27 29.09797 -111.04202 644 ft 0 kts 329°
2026-04-20 23:32 29.09799 -111.04203 644 ft 1 kts 329°
2026-04-20 23:32 29.09820 -111.04218 644 ft 6 kts 326°
2026-04-20 23:32 29.09828 -111.04224 644 ft 0 kts 325°
2026-04-20 23:32 29.09853 -111.04251 643 ft 10 kts 287°
2026-04-20 23:33 29.09811 -111.04353 641 ft 16 kts 235°
2026-04-20 23:33 29.09751 -111.04465 639 ft 10 kts 237°
2026-04-20 23:33 29.09748 -111.04469 639 ft 0 kts 237°
2026-04-20 23:34 29.09673 -111.04612 637 ft 49 kts 238°
2026-04-20 23:34 29.09396 -111.05136 636 ft 101 kts 238°
2026-04-20 23:34 29.08968 -111.05943 716 ft 131 kts 239°
2026-04-20 23:34 29.08494 -111.06897 1085 ft 142 kts 242°
2026-04-20 23:35 29.07899 -111.07947 1234 ft 170 kts 238°
2026-04-20 23:35 29.06597 -111.10394 1828 ft 184 kts 240°
2026-04-20 23:35 29.05918 -111.11710 1851 ft 200 kts 241°
2026-04-20 23:36 29.05175 -111.13084 2081 ft 205 kts 237°
2026-04-20 23:36 29.04406 -111.14466 2316 ft 207 kts 236°
2026-04-20 23:36 29.03297 -111.15488 2578 ft 209 kts 202°
2026-04-20 23:36 29.01889 -111.15911 2888 ft 207 kts 193°
2026-04-20 23:37 29.00461 -111.16250 3156 ft 209 kts 195°
2026-04-20 23:37 28.99050 -111.16633 3427 ft 212 kts 198°
2026-04-20 23:37 28.97623 -111.17040 3745 ft 211 kts 197°
2026-04-20 23:37 28.96178 -111.17445 3961 ft 215 kts 195°
2026-04-20 23:38 28.94693 -111.17472 4186 ft 219 kts 166°
2026-04-20 23:38 28.93420 -111.16498 4422 ft 228 kts 130°
2026-04-20 23:38 28.92852 -111.14821 4675 ft 231 kts 95°
2026-04-20 23:38 28.93222 -111.13044 4936 ft 234 kts 59°
2026-04-20 23:39 28.94379 -111.11773 5179 ft 232 kts 31°
2026-04-20 23:39 28.95767 -111.10811 5378 ft 233 kts 32°
2026-04-20 23:39 28.97031 -111.09703 5642 ft 233 kts 43°
2026-04-20 23:39 28.98056 -111.08277 5898 ft 232 kts 58°
2026-04-20 23:40 28.98852 -111.06678 6139 ft 232 kts 62°
2026-04-20 23:40 28.99643 -111.05070 6390 ft 231 kts 60°
2026-04-20 23:40 29.00481 -111.03495 6595 ft 232 kts 59°
2026-04-20 23:40 29.01333 -111.01922 6788 ft 233 kts 59°
2026-04-20 23:41 29.02182 -111.00332 6975 ft 235 kts 59°
2026-04-20 23:41 29.03034 -110.98728 7159 ft 236 kts 59°
2026-04-20 23:41 29.03885 -110.97127 7357 ft 237 kts 59°
2026-04-20 23:41 29.04743 -110.95516 7535 ft 237 kts 59°
2026-04-20 23:42 29.05603 -110.93899 7555 ft 238 kts 59°
2026-04-20 23:42 29.06461 -110.92284 7573 ft 239 kts 59°
2026-04-20 23:42 29.07314 -110.90682 7582 ft 239 kts 59°
2026-04-20 23:42 29.08179 -110.89054 7582 ft 240 kts 59°
2026-04-20 23:43 29.09047 -110.87421 7610 ft 240 kts 60°
2026-04-20 23:43 29.09909 -110.85796 7627 ft 240 kts 59°
2026-04-20 23:43 29.10776 -110.84164 7630 ft 240 kts 59°
2026-04-20 23:43 29.11645 -110.82528 7635 ft 241 kts 59°
2026-04-20 23:44 29.12514 -110.80889 7635 ft 241 kts 59°
2026-04-20 23:44 29.13363 -110.79288 7949 ft 229 kts 60°
2026-04-20 23:44 29.14172 -110.77764 8310 ft 220 kts 60°
2026-04-20 23:44 29.14952 -110.76292 8676 ft 213 kts 60°
2026-04-20 23:45 29.15709 -110.74863 9041 ft 208 kts 61°
2026-04-20 23:45 29.16440 -110.73446 9336 ft 205 kts 65°
2026-04-20 23:45 29.16812 -110.71889 9641 ft 201 kts 87°
2026-04-20 23:45 29.16735 -110.70311 9933 ft 198 kts 98°
2026-04-20 23:46 29.16591 -110.68770 10204 ft 198 kts 98°
2026-04-20 23:46 29.16443 -110.67176 10402 ft 204 kts 98°
2026-04-20 23:46 29.16290 -110.65540 10615 ft 208 kts 97°
2026-04-20 23:46 29.16137 -110.63892 10826 ft 210 kts 98°
2026-04-20 23:47 29.15983 -110.62217 11042 ft 212 kts 98°
2026-04-20 23:47 29.15826 -110.60525 11260 ft 215 kts 98°
2026-04-20 23:47 29.15669 -110.58823 11478 ft 216 kts 99°
2026-04-20 23:47 29.15509 -110.57098 11699 ft 218 kts 98°
2026-04-20 23:48 29.15350 -110.55364 11916 ft 219 kts 98°
2026-04-20 23:48 29.15186 -110.53613 12142 ft 224 kts 99°
2026-04-20 23:48 29.15020 -110.51826 12359 ft 227 kts 98°
2026-04-20 23:48 29.14855 -110.50041 12588 ft 230 kts 98°
2026-04-20 23:49 29.14682 -110.48190 12819 ft 231 kts 98°
2026-04-20 23:49 29.14513 -110.46382 13049 ft 234 kts 98°
2026-04-20 23:49 29.14340 -110.44514 13280 ft 236 kts 98°
2026-04-20 23:49 29.14165 -110.42639 13514 ft 238 kts 98°
2026-04-20 23:50 29.13989 -110.40750 13743 ft 239 kts 99°
2026-04-20 23:50 29.13811 -110.38842 13950 ft 241 kts 97°
2026-04-20 23:50 29.13633 -110.36934 14159 ft 242 kts 99°
2026-04-20 23:50 29.13453 -110.35018 14370 ft 243 kts 98°
2026-04-20 23:51 29.13272 -110.33093 14578 ft 244 kts 98°
2026-04-20 23:51 29.13091 -110.31164 14791 ft 244 kts 98°
2026-04-20 23:51 29.12909 -110.29226 15003 ft 245 kts 98°
2026-04-20 23:51 29.12728 -110.27312 15215 ft 246 kts 99°
2026-04-20 23:52 29.12543 -110.25361 15424 ft 247 kts 98°
2026-04-20 23:52 29.12359 -110.23403 15656 ft 248 kts 98°
2026-04-20 23:52 29.12173 -110.21447 15874 ft 250 kts 98°
2026-04-20 23:52 29.11985 -110.19460 16091 ft 250 kts 97°
2026-04-20 23:53 29.11686 -110.17511 16311 ft 249 kts 109°
2026-04-20 23:53 29.11062 -110.15655 16541 ft 250 kts 113°
2026-04-20 23:53 29.10429 -110.13804 16769 ft 252 kts 113°
2026-04-20 23:53 29.09791 -110.11930 16990 ft 253 kts 112°
2026-04-20 23:54 29.09153 -110.10056 17221 ft 254 kts 113°
2026-04-20 23:54 29.08507 -110.08162 17450 ft 254 kts 112°
2026-04-20 23:54 29.07865 -110.06276 17687 ft 255 kts 112°
2026-04-20 23:54 29.07222 -110.04389 17917 ft 255 kts 112°
2026-04-20 23:55 29.06576 -110.02492 18156 ft 256 kts 113°
2026-04-20 23:55 29.05928 -110.00594 18366 ft 257 kts 112°
2026-04-20 23:55 29.05287 -109.98715 18564 ft 258 kts 113°
2026-04-20 23:55 29.04634 -109.96802 18772 ft 258 kts 112°
2026-04-20 23:56 29.03980 -109.94886 18980 ft 259 kts 112°
2026-04-20 23:56 29.03322 -109.92962 19184 ft 260 kts 112°
2026-04-20 23:56 29.02777 -109.90994 19392 ft 261 kts 100°
2026-04-20 23:56 29.02623 -109.88930 19605 ft 261 kts 94°
2026-04-20 23:57 29.02498 -109.86858 19819 ft 262 kts 95°
2026-04-20 23:57 29.02359 -109.84785 20032 ft 263 kts 95°
2026-04-20 23:57 29.02221 -109.82705 20238 ft 262 kts 95°
2026-04-20 23:57 29.02087 -109.80622 20435 ft 263 kts 95°
2026-04-20 23:58 29.01955 -109.78563 20625 ft 264 kts 95°
2026-04-20 23:58 29.01819 -109.76471 20818 ft 264 kts 95°
2026-04-20 23:58 29.01682 -109.74368 21014 ft 265 kts 95°
2026-04-20 23:58 29.01545 -109.72269 21203 ft 265 kts 95°
2026-04-20 23:59 29.01407 -109.70166 21406 ft 265 kts 95°
2026-04-20 23:59 29.01270 -109.68068 21604 ft 264 kts 95°
2026-04-20 23:59 29.01132 -109.65967 21806 ft 265 kts 95°
2026-04-20 23:59 29.00994 -109.63867 22013 ft 266 kts 95°
2026-04-21 00:00 29.00854 -109.61748 22219 ft 268 kts 95°
2026-04-21 00:00 29.00714 -109.59630 22421 ft 269 kts 95°
2026-04-21 00:00 29.00571 -109.57484 22626 ft 270 kts 95°
2026-04-21 00:00 29.00431 -109.55376 22831 ft 270 kts 95°
2026-04-21 00:01 29.00288 -109.53228 23040 ft 271 kts 95°
2026-04-21 00:01 29.00144 -109.51070 23253 ft 271 kts 95°
2026-04-21 00:01 29.00000 -109.48920 23466 ft 271 kts 95°
2026-04-21 00:01 28.99856 -109.46775 23650 ft 272 kts 95°
2026-04-21 00:02 28.99711 -109.44618 23827 ft 272 kts 95°
2026-04-21 00:02 28.99565 -109.42455 24010 ft 273 kts 95°
2026-04-21 00:02 28.99418 -109.40284 24193 ft 274 kts 95°
2026-04-21 00:02 28.99272 -109.38133 24374 ft 276 kts 95°
2026-04-21 00:03 28.99123 -109.35940 24555 ft 277 kts 95°
2026-04-21 00:03 28.98974 -109.33748 24736 ft 278 kts 95°
2026-04-21 00:03 28.98823 -109.31537 24919 ft 280 kts 95°
2026-04-21 00:03 28.98668 -109.29283 24927 ft 288 kts 96°
2026-04-21 00:04 28.98508 -109.26957 24929 ft 295 kts 95°
2026-04-21 00:04 28.98346 -109.24606 24934 ft 299 kts 95°
2026-04-21 00:04 28.98182 -109.22219 24936 ft 303 kts 95°
2026-04-21 00:04 28.98015 -109.19814 24943 ft 306 kts 95°
2026-04-21 00:05 28.97847 -109.17381 24944 ft 308 kts 95°
2026-04-21 00:05 28.97676 -109.14924 24946 ft 310 kts 95°
2026-04-21 00:05 28.97505 -109.12464 24949 ft 311 kts 95°
2026-04-21 00:05 28.97332 -109.09993 24951 ft 313 kts 95°
2026-04-21 00:06 28.97160 -109.07545 24952 ft 314 kts 95°
2026-04-21 00:06 28.96987 -109.05070 24955 ft 314 kts 95°
2026-04-21 00:06 28.96810 -109.02571 24955 ft 314 kts 95°
2026-04-21 00:06 28.96635 -109.00088 24959 ft 315 kts 95°
2026-04-21 00:07 28.96458 -108.97582 24958 ft 316 kts 95°
2026-04-21 00:07 28.96281 -108.95092 24958 ft 317 kts 95°
2026-04-21 00:07 28.96102 -108.92573 24959 ft 317 kts 95°
2026-04-21 00:07 28.95923 -108.90063 24962 ft 317 kts 95°
2026-04-21 00:08 28.95745 -108.87568 24975 ft 318 kts 95°
2026-04-21 00:08 28.95563 -108.85034 24961 ft 318 kts 95°
2026-04-21 00:08 28.95382 -108.82526 24961 ft 317 kts 95°
2026-04-21 00:08 28.95201 -108.80022 24967 ft 316 kts 95°
2026-04-21 00:09 28.95020 -108.77527 24968 ft 316 kts 95°
2026-04-21 00:09 28.94839 -108.75016 24981 ft 316 kts 95°
2026-04-21 00:09 28.94657 -108.72506 24974 ft 317 kts 95°
2026-04-21 00:09 28.94477 -108.70036 24973 ft 316 kts 95°
2026-04-21 00:10 28.94294 -108.67537 24976 ft 316 kts 95°
2026-04-21 00:10 28.94111 -108.65036 24980 ft 316 kts 95°
2026-04-21 00:10 28.93927 -108.62526 24981 ft 317 kts 95°
2026-04-21 00:10 28.93742 -108.60014 24986 ft 319 kts 95°
2026-04-21 00:11 28.93555 -108.57484 24985 ft 320 kts 95°
2026-04-21 00:11 28.93370 -108.54957 24989 ft 320 kts 95°
2026-04-21 00:11 28.93183 -108.52430 24994 ft 319 kts 95°
2026-04-21 00:11 28.92995 -108.49911 24988 ft 317 kts 95°
2026-04-21 00:12 28.92808 -108.47402 24992 ft 317 kts 95°
2026-04-21 00:12 28.92623 -108.44934 24996 ft 317 kts 95°
2026-04-21 00:12 28.92433 -108.42391 24998 ft 317 kts 95°
2026-04-21 00:12 28.92247 -108.39920 24995 ft 317 kts 95°
2026-04-21 00:13 28.92058 -108.37428 25006 ft 316 kts 95°
2026-04-21 00:13 28.91868 -108.34918 25012 ft 316 kts 95°
2026-04-21 00:13 28.91678 -108.32414 25011 ft 317 kts 95°
2026-04-21 00:13 28.91490 -108.29922 25013 ft 314 kts 95°
2026-04-21 00:14 28.91301 -108.27440 25014 ft 313 kts 95°
2026-04-21 00:14 28.91113 -108.24970 25015 ft 312 kts 95°
2026-04-21 00:14 28.90923 -108.22503 25014 ft 312 kts 95°
2026-04-21 00:14 28.90734 -108.20037 25016 ft 311 kts 95°
2026-04-21 00:15 28.90546 -108.17580 25017 ft 310 kts 95°
2026-04-21 00:15 28.90357 -108.15129 25020 ft 310 kts 96°
2026-04-21 00:15 28.90169 -108.12700 25018 ft 310 kts 95°
2026-04-21 00:15 28.89979 -108.10248 25019 ft 310 kts 95°
2026-04-21 00:16 28.89788 -108.07794 25016 ft 312 kts 95°
2026-04-21 00:16 28.89597 -108.05325 25020 ft 313 kts 95°
2026-04-21 00:16 28.89403 -108.02832 25022 ft 315 kts 95°
2026-04-21 00:16 28.89208 -108.00342 25024 ft 315 kts 96°
2026-04-21 00:17 28.89011 -107.97839 25023 ft 316 kts 96°
2026-04-21 00:17 28.88819 -107.95375 25017 ft 314 kts 96°
2026-04-21 00:17 28.88624 -107.92901 25013 ft 313 kts 96°
2026-04-21 00:17 28.88492 -107.91227 25017 ft 313 kts 96°
2026-04-21 00:18 28.88233 -107.87947 25016 ft 314 kts 96°
2026-04-21 00:18 28.88036 -107.85457 25012 ft 315 kts 96°
2026-04-21 00:18 28.87838 -107.82968 25010 ft 316 kts 96°
2026-04-21 00:18 28.87703 -107.81276 25013 ft 316 kts 96°
2026-04-21 00:19 28.87504 -107.78771 25013 ft 317 kts 96°
2026-04-21 00:19 28.87306 -107.76296 25013 ft 317 kts 96°
2026-04-21 00:19 28.87105 -107.73785 25008 ft 318 kts 96°
2026-04-21 00:19 28.86903 -107.71271 25007 ft 319 kts 96°
2026-04-21 00:20 28.86700 -107.68753 25010 ft 319 kts 96°
2026-04-21 00:20 28.86496 -107.66229 25010 ft 320 kts 96°
2026-04-21 00:20 28.86292 -107.63699 25006 ft 320 kts 96°
2026-04-21 00:20 28.86086 -107.61163 25006 ft 321 kts 96°
2026-04-21 00:21 28.85880 -107.58625 25004 ft 321 kts 96°
2026-04-21 00:21 28.85674 -107.56093 25006 ft 320 kts 96°
2026-04-21 00:21 28.85467 -107.53566 25003 ft 320 kts 96°
2026-04-21 00:21 28.85260 -107.51038 25000 ft 320 kts 96°
2026-04-21 00:22 28.85053 -107.48506 25003 ft 320 kts 96°
2026-04-21 00:22 28.84846 -107.45989 25002 ft 320 kts 96°
2026-04-21 00:22 28.84636 -107.43441 25001 ft 320 kts 96°
2026-04-21 00:22 28.84427 -107.40908 24999 ft 321 kts 96°
2026-04-21 00:23 28.84219 -107.38402 25005 ft 321 kts 96°
2026-04-21 00:23 28.84008 -107.35862 24997 ft 321 kts 96°
2026-04-21 00:23 28.83798 -107.33327 24997 ft 321 kts 96°
2026-04-21 00:23 28.83586 -107.30792 24993 ft 321 kts 96°
2026-04-21 00:24 28.83375 -107.28261 24994 ft 321 kts 96°
2026-04-21 00:24 28.83162 -107.25720 24995 ft 322 kts 96°
2026-04-21 00:24 28.82949 -107.23182 24992 ft 322 kts 96°
2026-04-21 00:24 28.82735 -107.20641 24992 ft 322 kts 96°
2026-04-21 00:25 28.82521 -107.18098 24990 ft 322 kts 96°
2026-04-21 00:25 28.82306 -107.15555 24989 ft 322 kts 96°
2026-04-21 00:25 28.82090 -107.13007 24986 ft 322 kts 96°
2026-04-21 00:25 28.81874 -107.10466 24985 ft 322 kts 96°
2026-04-21 00:26 28.81657 -107.07917 24984 ft 323 kts 96°
2026-04-21 00:26 28.81439 -107.05365 24984 ft 323 kts 96°
2026-04-21 00:26 28.81221 -107.02816 24983 ft 323 kts 96°
2026-04-21 00:26 28.81006 -107.00298 24981 ft 323 kts 96°
2026-04-21 00:27 28.80786 -106.97740 24983 ft 323 kts 97°
2026-04-21 00:27 28.80566 -106.95184 24977 ft 323 kts 97°
2026-04-21 00:27 28.80345 -106.92628 24980 ft 324 kts 97°
2026-04-21 00:27 28.80124 -106.90073 24976 ft 324 kts 97°
2026-04-21 00:28 28.79905 -106.87546 24974 ft 324 kts 97°
2026-04-21 00:28 28.79683 -106.84988 24978 ft 324 kts 97°
2026-04-21 00:28 28.79461 -106.82426 24972 ft 324 kts 97°
2026-04-21 00:28 28.79237 -106.79865 24971 ft 324 kts 97°
2026-04-21 00:29 28.79013 -106.77301 24969 ft 324 kts 97°
2026-04-21 00:29 28.78789 -106.74740 24968 ft 324 kts 97°
2026-04-21 00:29 28.78564 -106.72180 24970 ft 325 kts 97°
2026-04-21 00:29 28.78342 -106.69647 24965 ft 325 kts 97°
2026-04-21 00:30 28.78115 -106.67078 24961 ft 326 kts 97°
2026-04-21 00:30 28.77888 -106.64502 24961 ft 327 kts 97°
2026-04-21 00:30 28.77658 -106.61910 24957 ft 327 kts 97°
2026-04-21 00:30 28.77429 -106.59323 24954 ft 327 kts 97°
2026-04-21 00:31 28.77200 -106.56746 24955 ft 326 kts 97°
2026-04-21 00:31 28.76973 -106.54201 24949 ft 326 kts 96°
2026-04-21 00:31 28.76744 -106.51627 24949 ft 326 kts 97°
2026-04-21 00:31 28.76514 -106.49057 24946 ft 326 kts 97°
2026-04-21 00:32 28.76282 -106.46476 24942 ft 327 kts 97°
2026-04-21 00:32 28.76051 -106.43904 24935 ft 326 kts 97°
2026-04-21 00:32 28.75820 -106.41335 24936 ft 324 kts 98°
2026-04-21 00:32 28.75591 -106.38794 24932 ft 321 kts 97°
2026-04-21 00:33 28.75360 -106.36251 24934 ft 323 kts 97°
2026-04-21 00:33 28.75129 -106.33706 24946 ft 324 kts 97°
2026-04-21 00:33 28.74897 -106.31152 24962 ft 324 kts 97°
2026-04-21 00:33 28.74664 -106.28595 24971 ft 325 kts 97°
2026-04-21 00:34 28.74429 -106.26033 24978 ft 326 kts 97°
2026-04-21 00:34 28.74193 -106.23463 24994 ft 326 kts 97°
2026-04-21 00:34 28.73962 -106.20936 25010 ft 325 kts 97°
2026-04-21 00:34 28.73724 -106.18346 25026 ft 325 kts 97°
2026-04-21 00:35 28.73490 -106.15806 25042 ft 326 kts 98°
2026-04-21 00:35 28.73253 -106.13239 25056 ft 326 kts 98°
2026-04-21 00:35 28.73015 -106.10662 25072 ft 327 kts 98°
2026-04-21 00:35 28.72776 -106.08087 25088 ft 327 kts 98°
2026-04-21 00:36 28.72537 -106.05506 25094 ft 327 kts 98°
2026-04-21 00:36 28.72297 -106.02931 25092 ft 327 kts 98°
2026-04-21 00:36 28.72056 -106.00351 25091 ft 327 kts 98°
2026-04-21 00:36 28.71816 -105.97776 25091 ft 327 kts 98°
2026-04-21 00:37 28.71394 -105.95238 25084 ft 324 kts 110°
2026-04-21 00:37 28.70576 -105.92862 25083 ft 322 kts 118°
2026-04-21 00:37 28.69679 -105.90558 25084 ft 322 kts 118°
2026-04-21 00:37 28.68786 -105.88206 25081 ft 323 kts 117°
2026-04-21 00:38 28.67925 -105.85846 25077 ft 323 kts 117°
2026-04-21 00:38 28.67060 -105.83484 25064 ft 323 kts 117°
2026-04-21 00:38 28.66183 -105.81128 25042 ft 323 kts 117°
2026-04-21 00:38 28.65304 -105.78775 25023 ft 323 kts 117°
2026-04-21 00:39 28.64428 -105.76416 25007 ft 323 kts 117°
2026-04-21 00:39 28.63556 -105.74063 24986 ft 323 kts 117°
2026-04-21 00:39 28.62678 -105.71704 24968 ft 323 kts 118°
2026-04-21 00:39 28.61812 -105.69380 24951 ft 323 kts 118°
2026-04-21 00:40 28.60933 -105.67019 24930 ft 324 kts 118°
2026-04-21 00:40 28.60053 -105.64658 24909 ft 324 kts 118°
2026-04-21 00:40 28.59172 -105.62295 24893 ft 324 kts 118°
2026-04-21 00:40 28.58294 -105.59943 24875 ft 324 kts 118°
2026-04-21 00:41 28.57411 -105.57576 24856 ft 324 kts 118°
2026-04-21 00:41 28.56531 -105.55222 24857 ft 324 kts 118°
2026-04-21 00:41 28.55648 -105.52860 24858 ft 324 kts 118°
2026-04-21 00:41 28.54765 -105.50499 24856 ft 324 kts 118°
2026-04-21 00:42 28.53879 -105.48135 24855 ft 324 kts 118°
2026-04-21 00:42 28.52995 -105.45776 24860 ft 324 kts 118°
2026-04-21 00:42 28.52107 -105.43410 24859 ft 324 kts 118°
2026-04-21 00:42 28.51223 -105.41053 24862 ft 324 kts 118°
2026-04-21 00:43 28.50338 -105.38697 24861 ft 324 kts 118°
2026-04-21 00:43 28.49451 -105.36336 24865 ft 325 kts 118°
2026-04-21 00:43 28.48562 -105.33972 24864 ft 325 kts 118°
2026-04-21 00:43 28.47673 -105.31608 24867 ft 325 kts 118°
2026-04-21 00:44 28.46785 -105.29248 24871 ft 325 kts 118°
2026-04-21 00:44 28.45894 -105.26886 24874 ft 325 kts 118°
2026-04-21 00:44 28.45016 -105.24556 24876 ft 325 kts 118°
2026-04-21 00:45 28.43237 -105.19838 24882 ft 324 kts 118°
2026-04-21 00:45 28.42349 -105.17489 24888 ft 324 kts 118°
2026-04-21 00:45 28.41462 -105.15142 24885 ft 323 kts 118°
2026-04-21 00:45 28.40572 -105.12787 24885 ft 324 kts 118°
2026-04-21 00:46 28.39683 -105.10440 24889 ft 323 kts 118°
2026-04-21 00:46 28.38795 -105.08093 24889 ft 323 kts 118°
2026-04-21 00:46 28.37904 -105.05740 24894 ft 323 kts 118°
2026-04-21 00:46 28.37016 -105.03397 24901 ft 323 kts 118°
2026-04-21 00:47 28.36125 -105.01048 24902 ft 324 kts 118°
2026-04-21 00:47 28.35235 -104.98705 24905 ft 324 kts 118°
2026-04-21 00:47 28.34342 -104.96353 24915 ft 324 kts 118°
2026-04-21 00:47 28.33449 -104.94002 24917 ft 324 kts 119°
2026-04-21 00:48 28.32567 -104.91682 24917 ft 324 kts 119°
2026-04-21 00:48 28.31673 -104.89332 24918 ft 324 kts 119°
2026-04-21 00:48 28.30778 -104.86983 24921 ft 324 kts 119°
2026-04-21 00:48 28.29885 -104.84637 24930 ft 324 kts 119°
2026-04-21 00:49 28.28989 -104.82285 24928 ft 324 kts 119°
2026-04-21 00:49 28.28093 -104.79935 24934 ft 324 kts 118°
2026-04-21 00:49 28.27201 -104.77595 24942 ft 323 kts 118°
2026-04-21 00:49 28.26309 -104.75259 24936 ft 323 kts 118°
2026-04-21 00:50 28.25415 -104.72918 24946 ft 322 kts 118°
2026-04-21 00:50 28.24524 -104.70588 24947 ft 321 kts 118°
2026-04-21 00:50 28.23644 -104.68288 24948 ft 321 kts 118°
2026-04-21 00:50 28.22754 -104.65962 24953 ft 321 kts 118°
2026-04-21 00:51 28.21864 -104.63640 24956 ft 321 kts 118°
2026-04-21 00:51 28.20972 -104.61312 24955 ft 322 kts 118°
2026-04-21 00:51 28.20080 -104.58986 24961 ft 322 kts 118°
2026-04-21 00:51 28.19187 -104.56659 24965 ft 322 kts 118°
2026-04-21 00:52 28.18294 -104.54331 24964 ft 322 kts 118°
2026-04-21 00:52 28.17410 -104.52032 24966 ft 322 kts 118°
2026-04-21 00:52 28.16517 -104.49709 24971 ft 322 kts 118°
2026-04-21 00:52 28.15623 -104.47384 24973 ft 321 kts 118°
2026-04-21 00:53 28.14728 -104.45060 24974 ft 321 kts 118°
2026-04-21 00:53 28.13835 -104.42741 24978 ft 321 kts 118°
2026-04-21 00:53 28.12943 -104.40427 24974 ft 321 kts 118°
2026-04-21 00:53 28.12052 -104.38114 24981 ft 320 kts 118°
2026-04-21 00:54 28.11161 -104.35805 24980 ft 320 kts 118°
2026-04-21 00:54 28.10268 -104.33493 24983 ft 320 kts 118°
2026-04-21 00:54 28.09379 -104.31190 24985 ft 319 kts 118°
2026-04-21 00:54 28.08488 -104.28886 24984 ft 319 kts 118°
2026-04-21 00:55 28.07598 -104.26585 24987 ft 318 kts 118°
2026-04-21 00:55 28.06708 -104.24285 24989 ft 318 kts 118°
2026-04-21 00:55 28.05821 -104.21992 24989 ft 318 kts 118°
2026-04-21 00:55 28.04933 -104.19702 24988 ft 317 kts 118°
2026-04-21 00:56 28.04052 -104.17428 24989 ft 317 kts 118°
2026-04-21 00:56 28.03170 -104.15154 24993 ft 316 kts 118°
2026-04-21 00:56 28.02286 -104.12876 24993 ft 316 kts 118°
2026-04-21 00:56 28.01399 -104.10594 24992 ft 316 kts 118°
2026-04-21 00:57 28.00516 -104.08320 24998 ft 315 kts 118°
2026-04-21 00:57 27.99632 -104.06046 25001 ft 315 kts 119°
2026-04-21 00:57 27.98746 -104.03771 24996 ft 315 kts 118°
2026-04-21 00:57 27.97864 -104.01504 24996 ft 315 kts 118°
2026-04-21 00:58 27.96977 -103.99227 24999 ft 315 kts 118°
2026-04-21 00:58 27.96104 -103.96987 25001 ft 315 kts 118°
2026-04-21 00:58 27.95221 -103.94722 24999 ft 315 kts 118°
2026-04-21 00:58 27.94335 -103.92452 25000 ft 315 kts 118°
2026-04-21 00:59 27.93451 -103.90188 25000 ft 315 kts 118°
2026-04-21 00:59 27.92565 -103.87918 25000 ft 315 kts 118°
2026-04-21 00:59 27.91679 -103.85651 25000 ft 315 kts 118°
2026-04-21 00:59 27.90789 -103.83375 24997 ft 316 kts 118°
2026-04-21 01:00 27.89899 -103.81103 24996 ft 316 kts 118°
2026-04-21 01:00 27.89010 -103.78831 24996 ft 316 kts 118°
2026-04-21 01:00 27.88118 -103.76554 24997 ft 317 kts 118°
2026-04-21 01:00 27.87225 -103.74275 24996 ft 317 kts 118°
2026-04-21 01:01 27.86331 -103.71996 24994 ft 317 kts 118°
2026-04-21 01:01 27.85436 -103.69716 24997 ft 317 kts 118°
2026-04-21 01:01 27.84540 -103.67434 24995 ft 317 kts 118°
2026-04-21 01:01 27.83649 -103.65166 24991 ft 314 kts 119°
2026-04-21 01:02 27.82772 -103.62938 24988 ft 315 kts 119°
2026-04-21 01:02 27.81880 -103.60671 24991 ft 315 kts 118°
2026-04-21 01:02 27.80984 -103.58396 24990 ft 316 kts 119°
2026-04-21 01:02 27.80096 -103.56139 24990 ft 317 kts 118°
2026-04-21 01:03 27.79192 -103.53847 24985 ft 318 kts 119°
2026-04-21 01:03 27.78296 -103.51572 24983 ft 317 kts 119°
2026-04-21 01:03 27.77396 -103.49293 24982 ft 318 kts 119°
2026-04-21 01:03 27.76498 -103.47016 24980 ft 318 kts 119°
2026-04-21 01:04 27.75902 -103.45507 24981 ft 318 kts 119°
2026-04-21 01:04 27.74999 -103.43223 24983 ft 318 kts 119°
2026-04-21 01:04 27.74097 -103.40940 24978 ft 319 kts 119°
2026-04-21 01:04 27.73194 -103.38658 24978 ft 319 kts 119°
2026-04-21 01:05 27.71997 -103.35634 24978 ft 319 kts 119°
2026-04-21 01:05 27.71381 -103.34079 24977 ft 319 kts 119°
2026-04-21 01:05 27.70474 -103.31790 24975 ft 319 kts 119°
2026-04-21 01:05 27.69567 -103.29502 24970 ft 320 kts 119°
2026-04-21 01:06 27.68662 -103.27222 24969 ft 320 kts 119°
2026-04-21 01:06 27.67755 -103.24937 24970 ft 320 kts 119°
2026-04-21 01:06 27.66839 -103.22630 24969 ft 320 kts 119°
2026-04-21 01:06 27.65927 -103.20336 24969 ft 321 kts 119°
2026-04-21 01:07 27.65030 -103.18079 24969 ft 321 kts 119°
2026-04-21 01:07 27.64109 -103.15765 24968 ft 321 kts 119°
2026-04-21 01:07 27.63197 -103.13474 24967 ft 321 kts 119°
2026-04-21 01:07 27.62279 -103.11170 24965 ft 321 kts 119°
2026-04-21 01:08 27.61366 -103.08878 24968 ft 321 kts 119°
2026-04-21 01:08 27.60443 -103.06566 24972 ft 322 kts 119°
2026-04-21 01:08 27.59524 -103.04261 24972 ft 322 kts 119°
2026-04-21 01:08 27.58605 -103.01960 24973 ft 321 kts 119°
2026-04-21 01:09 27.57688 -102.99664 24976 ft 321 kts 119°
2026-04-21 01:09 27.56782 -102.97397 24979 ft 321 kts 119°
2026-04-21 01:09 27.55865 -102.95105 24981 ft 321 kts 119°
2026-04-21 01:09 27.54949 -102.92815 24987 ft 321 kts 119°
2026-04-21 01:10 27.54030 -102.90522 24994 ft 321 kts 119°
2026-04-21 01:10 27.53111 -102.88229 24993 ft 321 kts 119°
2026-04-21 01:10 27.52193 -102.85937 24995 ft 321 kts 119°
2026-04-21 01:10 27.51271 -102.83638 25003 ft 321 kts 119°
2026-04-21 01:11 27.50355 -102.81356 25007 ft 321 kts 119°
2026-04-21 01:11 27.49432 -102.79059 25011 ft 321 kts 119°
2026-04-21 01:11 27.48507 -102.76756 25011 ft 322 kts 120°
2026-04-21 01:11 27.47583 -102.74459 25017 ft 322 kts 120°
2026-04-21 01:12 27.46657 -102.72156 25021 ft 322 kts 120°
2026-04-21 01:12 27.45748 -102.69898 25024 ft 321 kts 119°
2026-04-21 01:12 27.44824 -102.67602 25036 ft 320 kts 120°
2026-04-21 01:12 27.43892 -102.65288 25037 ft 321 kts 120°
2026-04-21 01:13 27.42979 -102.63028 25049 ft 322 kts 120°